Powrót do katalogu

FENGYUN 1C DEB

AktywnySSO
NORAD 31016·DEBRIS·🇨🇳 China

Wystrzelony May 10, 1999 z Taiyuan Satellite Launch Center

Loading…

Następne Przeloty (najbliższe 24 godziny)

TLE

ŚwieżeSource: Space-Track

Epoka: Sep 14, 2026, 06:32 UTC

1 31016U 99025BDJ 26257.27234091  .00000319  00000-0  12875-3 0  9995
2 31016  98.4268 269.8302 0112597 178.9369 243.5368 14.30847766 14101

Śledź FENGYUN 1C DEB w czasie rzeczywistym z AllMySat

Download on the App Store